SCP
1 1 1 1 1 1 1 1 1 0 0 0 0 0 0 0 0 0 0 0 0 0 0 0 0 0 0 0 0 0 0 0 0 0 0 0 0 0 0 0 0 0 0
1 1 1 0 1 1 1 1 1 1 0 0 0 0 0 0 0 0 0 0 0 0 0 0 0 0 0 0 0 0 0 0 0 0 0 0 0 0 0 0 0 0 0
1 1 1 1 1 1 0 0 1 0 0 0 0 0 0 0 0 0 0 0 0 0 0 0 0 0 0 0 0 0 0 0 0 0 0 0 0 0 0 0 0 0 0
1 1 1 1 1 0 0 0 0 0 0 0 0 0 0 0 0 0 0 0 0 0 0 0 0 0 0 0 0 0 0 0 0 0 0 0 0 0 0 0 0 0 0
1 1 1 1 0 0 0 0 0 0 0 0 0 0 0 0 0 0 0 0 0 0 0 0 0 0 0 0 0 0 0 0 0 0 0 0 0 0 0 0 0 0 0
0 0 0 0 0 0 0 0 0 0 0 0 0 0 0 0 0 0 0 0 0 0 0 0 0 0 0 0 0 0 0 0 0 0 0 0 0 0 0 0 0 0 0
0 0 0 0 0 0 0 0 0 0 0 0 0 0 0 0 0 0 0 0 0 0 0 0 0 0 0 0 0 0 0 0 0 0 0 0 0 0 0 0 0 0 0
0 0 0 0 0 0 0 0 0 0 0 0 0 0 0 0 0 0 0 0 0 0 0 0 0 0 0 0 0 0 0 0 0 0 0 0 0 0 0 0 0 0 0
0 0 0 0 0 0 0 0 0 0 0 0 0 0 0 0 0 0 0 0 0 0 0 0 0 0 0 0 0 0 0 0 0 0 0 0 0 0 0 0 0 0 0
0 0 0 0 0 0 0 0 0 0 0 0 0 0 0 0 0 0 0 0 0 0 0 0 0 0 0 0 0 0 0 0 0 0 0 0 0 0 0 0 0 0 0
0 0 0 0 0 0 0 0 0 0 0 0 0 0 0 0 0 0 0 0 0 0 0 0 0 0 0 0 0 0 0 0 0 0 -0 -0 0 0 0 0 0 0 0
0 0 0 0 0 0 0 0 0 0 0 0 0 0 0 0 0 0 0 0 0 0 0 0 0 0 0 0 0 0 0 0 0 0 -0 0 0 0 0 0 0 0 0
0 0 0 0 0 0 0 0 0 0 0 0 0 0 0 0 0 0 0 0 0 0 0 0 0 0 0 0 0 0 0 0 0 0 0 0 0 0 0 0 0 0 0
0 0 0 0 0 0 0 0 0 0 0 0 0 0 0 0 0 0 0 0 0 0 0 0 0 0 0 0 0 0 0 0 0 0 0 0 0 0 0 0 0 0 0
0 0 0 0 0 0 0 0 0 0 0 0 0 0 0 0 0 0 0 0 0 0 0 0 0 0 0 0 0 0 0 0 0 0 0 0 0 0 0 0 0 0 0
0 0 0 0 0 0 0 0 0 0 0 0 0 0 0 0 0 0 0 0 0 0 0 0 0 0 0 0 0 0 0 0 0 0 0 0 0 0 0 0 0 0 0
0 0 0 0 0 0 0 0 0 0 0 0 0 0 0 0 0 0 0 0 0 0 0 0 0 0 0 0 0 0 0 0 0 0 0 0 0 0 0 0 0 0 0
0 0 0 0 0 0 0 0 0 0 0 0 0 0 0 0 0 0 0 0 0 0 0 0 0 0 0 0 0 0 0 0 0 0 0 0 0 0 0 0 0 0 0
0 0 0 0 1 1 1 0 0 0 0 0 0 0 0 0 0 0 0 0 0 0 0 0 0 0 0 0 0 0 0 0 0 0 0 0 0 0 0 0 0 0 0
0 0 0 0 1 1 1 1 0 0 0 0 0 0 0 0 0 0 0 0 0 0 0 0 0 0 0 0 0 0 0 0 0 0 0 0 0 0 0 0 0 0 0
0 0 0 0 1 1 1 1 1 0 0 0 0 0 0 0 0 0 0 0 0 0 0 0 0 0 0 0 0 0 0 0 0 0 0 0 0 0 0 0 0 0 0
0 0 0 0 1 1 1 1 1 1 1 1 0 0 0 0 0 0 0 0 0 0 0 0 0 0 0 0 0 0 0 0 0 0 0 0 0 0 0 0 0 0 0
0 0 0 0 0 1 1 1 1 1 1 1 0 0 0 0 0 0 0 0 0 0 0 0 0 0 0 0 0 0 0 0 0 0 0 0 0 0 0 0 0 0 0
0 0 0 0 0 0 1 1 1 1 1 1 0 0 0 0 0 0 0 0 0 0 0 0 0 0 0 0 0 0 0 0 0 0 0 0 0 0 0 0 0 0 0
0 0 0 0 0 0 0 1 1 1 1 0 0 0 0 0 0 0 0 0 0 0 0 0 0 0 0 0 0 0 0 0 0 0 0 0 0 0 0 0 0 0 0
0 0 0 0 0 0 0 1 1 1 0 0 0 0 0 0 0 0 0 0 0 0 0 0 0 0 0 0 0 0 0 0 0 0 0 0 0 0 0 0 0 0 0
Wind_Speed
8 8 10 11 10 9 9 9 9 8 6 5 5 5 4 4 3 3 5 5 5 5 5 4 3 3 3 2 2 2 3 2 1 2 3 3 2 0 1 1 2 2 3
8 9 9 9 10 10 9 9 9 9 7 5 4 4 5 4 3 3 4 5 5 5 5 5 3 3 3 4 3 3 2 2 2 2 2 3 4 3 2 0 1 1 1
13 11 11 10 10 10 10 10 9 9 8 7 5 5 4 4 3 3 3 3 5 5 5 5 4 4 3 3 3 3 3 2 2 2 3 3 1 2 3 2 1 1 1
11 11 12 11 11 11 10 9 9 9 8 8 8 9 6 5 4 3 3 3 4 5 5 5 5 4 3 3 3 3 3 3 2 2 2 2 3 2 1 3 3 2 1
11 12 13 13 11 10 10 9 9 8 8 7 9 8 6 4 4 4 5 3 3 4 5 5 5 4 3 4 4 4 3 3 2 2 2 3 3 2 3 1 3 3 3
10 10 11 11 10 9 9 9 9 8 8 8 8 9 9 7 7 5 5 3 2 2 4 5 5 4 3 3 4 4 4 3 3 2 2 2 2 1 2 1 1 2 3
11 11 11 12 11 11 10 9 10 8 8 8 8 8 9 9 9 7 6 5 3 2 3 5 4 4 3 3 3 3 3 3 3 2 2 2 1 1 2 2 0 1 3
11 12 12 12 13 13 11 10 10 9 8 8 7 7 8 6 5 6 5 5 4 4 5 5 5 4 4 4 3 3 2 2 3 3 2 2 1 1 2 2 2 1 3
13 13 13 12 12 13 12 12 11 9 9 9 8 7 7 7 6 6 5 5 4 5 6 5 5 4 4 4 4 2 2 2 2 2 2 2 1 1 1 2 2 3 0
13 14 13 12 11 11 10 11 11 10 9 9 8 8 7 7 7 6 6 6 6 5 6 5 5 5 4 4 4 2 2 3 2 1 2 1 0 1 1 1 1 2 3
15 15 13 12 11 11 11 11 10 9 9 9 7 8 7 7 7 7 7 7 6 6 6 6 5 5 4 4 4 3 3 3 1 1 2 1 1 1 1 1 1 1 2
14 14 14 12 11 12 12 12 11 10 10 9 8 8 7 7 7 7 7 7 7 6 6 6 5 5 5 4 4 4 3 3 3 2 2 2 1 1 0 0 0 1 1
12 13 13 13 13 13 12 12 12 11 10 10 9 9 8 8 8 7 7 7 7 6 6 6 6 5 5 5 4 4 4 4 4 4 4 3 3 2 2 2 2 1 1
14 14 13 13 13 13 13 13 12 11 11 10 10 10 9 9 8 8 7 7 7 7 6 6 6 5 5 5 5 4 4 4 4 4 4 4 4 4 4 3 3 2 1
15 16 16 14 13 13 13 13 13 12 12 11 11 10 9 8 8 8 8 7 7 8 7 6 5 5 5 5 5 5 5 4 4 4 4 4 6 7 6 4 4 3 2
16 17 17 16 16 16 15 14 13 13 12 13 12 10 9 9 9 9 8 8 7 6 6 6 6 6 5 7 9 7 4 4 4 4 4 4 5 7 8 9 8 7 5
15 17 18 17 17 16 16 16 15 13 13 13 12 11 11 11 10 10 9 9 8 7 6 7 7 6 7 10 10 10 5 5 5 5 4 4 4 5 4 6 7 8 10
14 16 16 16 15 15 15 14 14 14 14 13 13 12 12 11 10 9 9 9 7 7 7 7 7 6 8 12 12 11 6 4 5 5 6 5 6 5 5 4 5 6 7
11 13 14 15 14 15 15 14 14 14 14 14 13 13 13 12 11 11 10 9 7 7 7 6 7 7 8 12 13 10 4 4 6 6 5 6 6 8 8 5 5 7 7
7 9 11 11 13 14 14 15 15 15 16 16 15 13 13 13 13 12 10 7 7 8 7 7 7 8 7 10 13 12 4 5 5 4 5 7 8 9 8 6 6 7 9
5 7 9 10 12 13 14 14 14 15 15 13 12 12 13 12 11 10 8 7 7 7 7 7 6 7 8 10 13 13 6 6 5 4 4 5 8 9 9 8 7 10 9
4 5 7 7 8 11 13 13 13 12 10 10 11 12 12 11 10 9 8 8 8 7 7 6 6 5 7 9 11 14 14 9 6 6 5 5 8 9 9 7 9 12 9
5 5 6 6 5 7 10 12 10 8 9 10 10 10 10 10 9 10 9 7 7 7 6 6 6 5 4 5 10 12 13 13 8 6 7 8 9 8 7 10 12 9 5
4 5 6 6 5 5 7 8 7 9 10 10 9 8 8 7 7 7 7 7 7 7 6 6 6 4 3 4 4 4 5 8 7 6 6 8 9 7 8 8 7 5 5
5 5 6 5 4 4 4 4 6 8 9 9 8 8 7 8 7 6 6 7 7 8 8 6 6 5 5 7 9 6 4 4 5 3 2 2 2 3 4 4 5 4 4
5 6 6 5 4 4 4 3 5 7 8 7 6 5 5 5 5 5 3 4 4 7 8 7 6 5 7 7 8 8 7 7 6 4 2 3 4 5 5 5 5 4 5
Wind_Direction
168 162 159 157 159 160 157 152 152 149 138 135 136 133 136 135 129 132 130 125 122 117 110 106 96 93 93 87 76 74 56 31 40 58 15 356 356 303 221 200 192 202 202
161 166 163 162 167 166 162 159 158 153 150 150 145 139 135 133 131 122 118 120 120 122 116 113 107 99 92 74 60 69 70 25 41 101 82 21 359 350 360 313 203 216 206
170 172 168 171 168 167 168 167 160 154 152 146 128 119 103 95 97 110 115 122 122 118 115 116 111 102 101 97 78 77 91 62 17 63 125 126 195 320 341 352 4 309 245
171 170 169 170 175 176 169 161 158 157 155 146 142 147 148 149 162 155 144 132 126 123 123 118 113 110 105 103 90 82 90 93 48 15 40 112 151 133 1 338 343 346 332
169 172 173 173 174 171 165 163 157 155 154 150 148 148 146 145 139 131 129 123 117 123 127 123 117 116 109 106 94 88 85 91 94 65 42 48 50 74 120 348 332 341 328
165 169 165 162 165 163 161 160 156 154 154 150 149 149 150 146 141 139 139 131 112 109 124 122 121 124 118 114 110 107 100 95 93 85 78 90 85 71 106 126 320 321 312
162 160 160 163 163 162 163 159 156 155 154 150 150 151 151 151 152 154 152 144 133 131 141 128 128 129 129 123 113 103 100 98 100 101 97 95 115 145 135 124 133 334 312
163 162 165 167 167 165 164 163 162 158 157 152 151 148 148 150 150 154 152 155 156 157 153 139 138 140 135 126 114 109 117 108 103 98 101 89 68 101 128 145 136 38 337
167 168 171 171 169 168 169 168 165 161 161 155 147 145 147 147 148 150 148 150 152 153 149 144 140 139 135 132 122 116 121 118 108 102 98 93 57 63 88 118 139 142 145
171 172 175 175 173 172 169 166 164 164 161 154 156 154 153 151 150 145 149 151 152 147 147 148 148 148 144 140 130 127 136 130 130 132 111 94 61 43 53 78 99 135 157
174 174 176 176 171 169 167 165 166 161 161 159 153 149 155 151 148 150 155 153 150 150 153 155 154 156 157 154 147 155 157 151 164 156 146 170 158 101 33 56 78 109 140
176 174 172 170 171 171 170 170 171 170 169 163 156 158 158 154 154 157 158 154 155 159 159 155 156 164 166 166 166 174 170 174 184 190 173 201 177 178 220 176 247 232 185
174 172 172 175 175 174 174 174 175 174 170 164 162 163 164 165 166 166 162 160 161 163 162 158 164 173 173 175 179 178 181 186 193 191 191 206 185 210 225 220 230 246 243
175 175 177 180 179 177 177 177 178 175 171 169 169 171 176 175 173 168 166 169 168 167 170 173 176 180 180 181 187 187 191 199 204 201 202 206 201 210 218 223 227 228 241
180 181 183 182 181 179 178 178 178 176 174 172 175 180 179 176 172 171 173 173 173 176 174 175 182 184 184 192 190 192 195 201 218 226 225 226 224 221 218 215 214 207 216
187 187 186 184 183 182 181 180 180 179 175 178 183 180 175 176 178 178 177 176 179 178 176 182 185 191 201 199 193 184 186 196 207 225 241 249 247 244 238 234 222 206 206
189 188 188 186 186 185 182 183 183 178 178 182 183 182 180 181 184 182 176 181 185 182 184 191 190 196 207 200 198 196 188 201 214 222 230 244 243 239 240 250 250 241 234
188 189 188 187 186 183 182 182 178 179 182 185 186 185 183 184 183 181 183 187 184 187 191 196 197 198 211 206 206 204 199 210 225 226 225 233 248 248 232 237 251 255 253
189 189 187 185 182 182 179 176 179 182 185 188 188 187 185 184 184 188 190 188 184 191 195 196 196 201 214 209 208 200 197 221 239 240 233 232 241 248 239 230 247 264 269
178 180 179 177 180 183 176 177 182 184 191 192 190 186 184 185 188 191 191 186 187 195 195 201 203 206 215 214 210 200 195 222 241 251 249 242 241 246 242 223 232 254 265
166 164 166 176 184 178 174 181 184 192 194 187 183 183 185 186 187 187 184 181 184 188 195 205 213 213 215 216 213 204 200 214 228 239 245 243 241 243 246 235 228 243 256
126 140 155 172 174 170 170 177 188 191 178 173 177 182 184 186 187 182 184 184 182 187 199 209 225 226 220 216 216 211 212 212 214 231 238 241 246 249 254 250 248 255 262
120 126 133 140 149 165 170 182 193 173 166 170 179 182 184 187 180 179 185 183 185 192 202 207 221 228 223 222 223 218 217 217 218 238 245 252 260 264 264 261 263 265 251
100 108 116 124 142 163 174 179 173 167 163 170 176 177 177 181 179 179 181 183 190 196 201 206 214 220 222 220 216 213 218 220 227 247 262 269 270 264 260 269 271 253 238
85 96 106 121 137 144 153 156 157 159 165 172 175 175 178 178 181 184 188 188 196 195 196 204 200 201 221 227 209 195 199 200 210 205 244 270 276 276 273 271 269 264 254
85 89 95 102 107 112 114 120 139 152 156 156 160 164 166 167 170 172 175 187 184 195 200 203 200 212 216 212 206 205 207 205 189 172 217 244 250 256 263 267 271 268 259